Powrót do katalogu

STARLINK-31829

AktywnyŁącznośćVLEO
NORAD 59770·PAYLOAD·🇺🇸 United States

Wystrzelony May 14, 2024 z Vandenberg Space Force Base

Loading…

Następne Przeloty (najbliższe 24 godziny)

TLE

ŚwieżeSource: CelesTrak SupGP

Epoka: Sep 14, 2026, 22:45 UTC

1 59770C 24091T   26257.94840278  .00016204  00000+0  47866-3 0  2571
2 59770  53.1592 227.3328 0001609  88.6774  44.8881 15.34388773    11

Śledź STARLINK-31829 w czasie rzeczywistym z AllMySat

Download on the App Store